This is the latest recevied weather packets stored in our database for station/object W7WSW. If no packets are shown the sender has not sent any weather packets the latest 10 day(s).
| Time | Temp. | Humidity | Pressure | Rain* | Wind** | Luminosity | Snow |
|---|---|---|---|---|---|---|---|
| 1777591876 | 15° C | 78% | 1016 hPa | 0 mm | - | 550 W/m² | - |
| 1777591816 | 15° C | 78% | 1016 hPa | 0 mm | - | 550 W/m² | - |
| 1777591756 | 15° C | 78% | 1015.9 hPa | 0 mm | - | 557 W/m² | - |
| 1777591695 | 15.56° C | 78% | 1016.1 hPa | 0 mm | - | 561 W/m² | - |
| 1777591630 | 15.56° C | 78% | 1016.1 hPa | 0 mm | - | 563 W/m² | - |
| 1777591570 | 15.56° C | 79% | 1016.2 hPa | 0 mm | - | 566 W/m² | - |
| 1777591556 | 15.56° C | 78% | 1016.1 hPa | 0 mm | - | 568 W/m² | - |
| 1777591450 | 15° C | 78% | 1016.2 hPa | 0 mm | - | 571 W/m² | - |
| 1777591390 | 15° C | 78% | 1016.1 hPa | 0 mm | - | 577 W/m² | - |
| 1777591324 | 15° C | 78% | 1016.1 hPa | 0 mm | - | 580 W/m² | - |
| 1777591264 | 15.56° C | 78% | 1016.2 hPa | 0 mm | - | 577 W/m² | - |
| 1777591250 | 15.56° C | 78% | 1016.2 hPa | 0 mm | - | 570 W/m² | - |
| 1777591144 | 15.56° C | 78% | 1016.2 hPa | 0 mm | - | 571 W/m² | - |
| 1777591084 | 15.56° C | 78% | 1016.2 hPa | 0 mm | - | 585 W/m² | - |
| 1777591018 | 15.56° C | 77% | 1016.2 hPa | 0 mm | - | 584 W/m² | - |
| 1777590958 | 15.56° C | 77% | 1016.3 hPa | 0 mm | - | 584 W/m² | - |
| 1777590944 | 15.56° C | 77% | 1016.3 hPa | 0 mm | - | 580 W/m² | - |
| 1777590838 | 15.56° C | 77% | 1016.3 hPa | 0 mm | - | 575 W/m² | - |
| 1777590778 | 15.56° C | 77% | 1016.3 hPa | 0 mm | - | 578 W/m² | - |
| 1777590712 | 15.56° C | 77% | 1016.3 hPa | 0 mm | - | 566 W/m² | - |
| 1777590652 | 15.56° C | 77% | 1016.2 hPa | 0 mm | - | 577 W/m² | - |
| 1777590592 | 15.56° C | 77% | 1016.2 hPa | 0 mm | - | 584 W/m² | - |
| 1777590532 | 15.56° C | 77% | 1016.3 hPa | 0 mm | - | 594 W/m² | - |
| 1777590472 | 15.56° C | 76% | 1016.3 hPa | 0 mm | - | 592 W/m² | - |
| 1777590406 | 15.56° C | 77% | 1016.3 hPa | 0 mm | - | 592 W/m² | - |
* Rain latest hour (hover to see other rain measurements)
** Current wind speed in m/s (hover to see current wind gust speed)